OneWeb SL0538

operational
NORAD ID: 56047 Int'l Des: 2023-043 Owner: ONEWEBN Country: UK Constellation: oneweb
LEOCIRCULARPOLARONEWEB_TYPE

OneWeb SL0538について

説明を読み込み中...

リアルタイム位置

3D地球を読み込み中...

次回通過

高度履歴

Altitude vs Time

uPlot chart will show altitude changes over time

軌道要素

1 56047U 23043B 26036.63752383 -.00000016 00000-0 -74597-4 0 9993
2 56047 87.9006 254.9609 0001543 96.8856 263.2451 13.16593978141667
Epoch: Feb 5, 2026 • Age: 16 hours

現在のステータス

高度 1227.1 km
速度 7.24 km/s
衛星直下点 -80.21°S, 3.44°W
打ち上げ日 Mar 26, 2023
運用期間 2.8 years
タイプ internet

技術仕様

分類 Payload
質量 148.00 kg
乾燥質量 140.00 kg
総質量 148.00 kg
長さ 1.30 m
直径 1.00 m
スパン 5.00 m
形状 Trapezoid+2 pan
製造者 ONEWUS
バスタイプ ARROW
フェーズステータス In Orbit
所有者/国 ONEWEBN/UK

大規模コンステレーション

Loading constellations...